Home   Weather   Olten   Past weeks

Flag for Switzerland Past Weather in Olten, Solothurn, Switzerland — Yesterday and Last 2 Weeks

Now
48 °F

Cool.


Feels Like: 47 °F
Forecast: 33 / 53 °F
Wind: 3 mph from Northeast

Location: Wynau

Current Time: Feb 25, 2017 at 5:41:53 pm

Latest Report: Feb 25, 2017 at 4:00 pm


Visibility: N/A

Pressure: 30.14 "Hg

Humidity: 44%

Dew Point: 27 °F

Location of OltenLocation

Past Weather in Olten — Graph

°F

Olten Temperature Yesterday

Maximum temperature yesterday: 54 °F (at 12:00 am)
Minimum temperature yesterday: 34 °F (at 11:00 pm)
Average temperature yesterday: 44 °F

High & Low Weather Summary for the Past Weeks

 TemperatureHumidityPressure
High67 °F (Feb 23, 3:00 pm)100% (Feb 14, 11:00 pm)30.68 "Hg (Feb 14, 11:00 pm)
Low26 °F (Feb 15, 7:00 am)19% (Feb 23, 3:00 pm)29.61 "Hg (Feb 23, 5:00 pm)
Average39 °F82%30.26 "Hg
* Reported Feb 10 4:00 pm — Feb 25 4:00 pm, Olten, Weather by CustomWeather, © 2017

Note: Actual official high and low records may vary slightly from our data, if they occured in-between our weather recording intervals... More about our weather records

Advertising

Olten Weather History for the Previous 24 Hours

Scroll right to see more
 ConditionsComfort  
Time TempWeatherWind HumidityBarometerVisibility
4:00 pm
Sat, Feb 25
48 °FCool.3 mph44%30.14 "HgN/A
3:00 pm48 °FCool.5 mph43%30.15 "HgN/A
2:00 pm47 °FCool.8 mph50%30.17 "HgN/A
1:00 pm44 °FQuite cool.8 mph55%30.20 "HgN/A
12:00 pm42 °FQuite cool.8 mph67%30.24 "HgN/A
11:00 am38 °FChilly.9 mph80%30.24 "HgN/A
10:00 am34 °FChilly.7 mph91%30.25 "HgN/A
9:00 am31 °FChilly.6 mph97%30.24 "HgN/A
8:00 am30 °FChilly.3 mph99%30.24 "HgN/A
7:00 am29 °FChilly.3 mph96%30.24 "HgN/A
6:00 am30 °FChilly.2 mph96%30.24 "HgN/A
5:00 am28 °FChilly.2 mph98%30.24 "HgN/A
4:00 am29 °FChilly.No wind98%30.24 "HgN/A
3:00 am30 °FChilly.1 mph96%30.24 "HgN/A
2:00 am31 °FChilly.1 mph96%30.23 "HgN/A
1:00 am33 °FChilly.1 mph92%30.22 "HgN/A
12:00 am33 °FChilly.No wind94%30.20 "HgN/A
11:00 pm
Fri, Feb 24
34 °FChilly.1 mph91%30.19 "HgN/A
10:00 pm36 °FChilly.2 mph87%30.16 "HgN/A
9:00 pm39 °FChilly.6 mph71%30.14 "HgN/A
8:00 pm41 °FQuite cool.6 mph63%30.11 "HgN/A
7:00 pm41 °FQuite cool.3 mph59%30.08 "HgN/A
6:00 pm42 °FQuite cool.2 mph60%30.04 "HgN/A
5:00 pm42 °FQuite cool.6 mph57%30.01 "HgN/A
Weather by CustomWeather, © 2017

See weather overviewHow to use our weather pages